[[{"header":{"parameterUnit":"m.s-1","parameterCategory":1,"la1":30.2991,"la2":30.254,"lo1":-89.0895,"lo2":-89.0444,"dy":0.0017,"dx":0.0017,"nx":28,"ny":28,"refTime":"2023-09-25T21:00:00:Z","depth":0,"parameterNumber":2,"parameterNumberName":"U-component_of_WINDS"},"data":[0,0,0,0,0,0,0,0,0,0,0,0,0,0,0,0,0,0,0,0,0,0,0,0,0,0,0,0,0,0,0,0,0,0,0,0,0,0,0,0,0,0,0,0,0,0,0,0,0,0,0,0,0,0,0,0,0,0,-1.9167,-1.9166,0,-1.9084,-1.9083,-1.9082,-1.8971,-1.8969,-1.8967,-1.8965,-1.888,-1.8879,-1.8879,0,0,0,0,0,0,0,0,0,0,0,0,0,-1.9229,-1.9228,-1.9167,-1.9166,-1.9165,-1.9084,-1.9083,-1.9082,-1.8971,-1.8969,-1.8967,-1.8965,-1.888,-1.8879,-1.8879,0,0,0,0,0,0,0,0,0,0,0,0,0,-1.918,-1.9228,-1.9167,-1.91,-1.9093,-1.9084,-1.9083,-1.9081,-1.8972,-1.8969,-1.8966,-1.8964,-1.888,-1.8879,-1.8878,-1.8929,0,0,-1.8876,-1.8876,0,0,0,0,0,0,0,0,-1.9183,-1.9178,-1.9111,-1.9105,-1.9097,-1.9035,-1.9073,-1.903,-1.8972,-1.9018,-1.8965,-1.8962,-1.8934,-1.8928,-1.8919,-1.8925,-1.8921,-1.8876,-1.8875,-1.8875,-1.8875,0,0,0,0,0,0,0,-1.9186,-1.9181,-1.9134,-1.911,-1.9102,-1.9074,-1.9064,-1.9065,-1.8992,-1.9014,-1.9005,-1.8997,-1.8929,-1.892,-1.8916,-1.892,-1.8876,-1.8875,-1.8875,-1.8874,-1.8962,-1.8965,0,0,0,0,0,0,-1.92,-1.9184,-1.9137,-1.9131,-1.9134,-1.9075,-1.9064,-1.9058,-1.8992,-1.8979,-1.9,-1.8992,-1.8923,-1.8917,-1.8912,-1.8966,-1.8875,-1.8874,-1.8874,-1.8959,-1.8963,-1.8966,0,0,0,0,0,0,-1.9202,-1.9197,-1.914,-1.9156,-1.9146,-1.9077,-1.9071,-1.9057,-1.9048,-1.8981,-1.8968,-1.9003,-1.892,-1.8914,-1.8925,-1.8962,-1.8874,-1.8873,-1.8956,-1.8961,-1.8964,-1.9075,0,0,0,0,0,0,-1.9204,-1.9198,-1.9216,-1.9157,-1.9146,-1.9155,-1.9073,-1.9058,-1.9047,-1.9036,-1.8981,-1.8969,-1.8917,-1.8927,-1.8925,-1.8959,-1.8872,-1.8952,-1.8958,-1.8963,-1.9068,-1.9083,-1.9095,0,0,0,0,0,-1.9206,-1.9251,-1.9218,-1.9213,-1.9167,-1.9157,-1.9151,-1.9091,-1.905,-1.9068,-1.9025,-1.8971,-1.8959,-1.8929,-1.8925,-1.896,-1.895,-1.8956,-1.8963,-1.9062,-1.908,-1.9095,0,0,0,0,0,0,-1.9316,-1.9242,-1.9204,-1.9231,-1.9201,-1.9139,-1.9159,-1.9112,-1.9093,-1.9084,-1.901,-1.8998,-1.9019,-1.8991,-1.896,-1.9005,-1.8946,-1.8952,-1.9023,-1.9039,-1.9053,-1.9059,-1.8872,0,0,0,0,0,-1.9343,-1.9341,-1.9276,-1.9306,-1.9293,-1.9229,-1.9222,-1.9179,-1.9145,-1.9132,-1.909,-1.9059,-1.9048,-1.9042,-1.9028,-1.9064,-1.905,-1.9086,-1.9099,-1.9111,-1.9117,-1.9133,-1.9148,-1.8987,-1.8987,-1.8987,0,0,-1.9399,-1.9359,-1.9362,-1.9327,-1.9299,-1.9298,-1.9219,-1.9222,-1.9221,-1.9132,-1.914,-1.9109,-1.907,-1.9094,-1.9102,-1.9071,-1.9158,-1.9119,-1.9129,-1.9128,-1.9141,-1.9157,-1.917,-1.8991,-1.8991,-1.899,0,0,-1.9501,-1.9471,-1.9491,-1.9465,-1.9424,-1.9381,-1.9387,-1.9331,-1.9307,-1.9315,-1.9248,-1.9245,-1.9228,-1.9203,-1.9188,-1.9281,-1.923,-1.9279,-1.935,-1.9367,-1.938,-1.9391,-1.9424,-1.9436,-1.9285,-1.9285,-1.9285,0,-1.9576,-1.9573,-1.9508,-1.9515,-1.9502,-1.9422,-1.9443,-1.942,-1.9377,-1.937,-1.9335,-1.9312,-1.928,-1.9297,-1.932,-1.931,-1.9314,-1.9284,-1.9383,-1.9394,-1.9403,-1.9433,-1.9446,-1.9291,-1.9291,-1.929,-1.9289,0,-1.9667,-1.9666,-1.9688,-1.9648,-1.9637,-1.9651,-1.9589,-1.9586,-1.9543,-1.9504,-1.9513,-1.9472,-1.9448,-1.9449,-1.9408,-1.946,-1.9442,-1.9397,-1.9336,-1.9425,-1.9453,-1.9464,-1.93,-1.9298,-1.9296,-1.9295,0,0,-1.9834,-1.9759,-1.9769,-1.975,-1.9699,-1.9696,-1.9707,-1.9684,-1.9683,-1.9656,-1.9663,-1.965,-1.9608,-1.9591,-1.9546,-1.9561,-1.9638,-1.9513,-1.9511,-1.9538,-1.9693,-1.9727,-1.9742,-1.9604,-1.9606,-1.9608,-1.9696,0,-1.9926,-1.994,-1.9883,-1.9911,-1.9909,-1.9834,-1.9843,-1.9813,-1.9777,-1.977,-1.973,-1.9722,-1.9667,-1.9656,-1.9668,-1.9626,-1.9668,-1.9619,-1.9609,-1.961,-1.9621,-1.9756,-1.9792,-1.9877,-1.9706,-1.9708,-1.9709,0,-2.0035,-2.0014,-2.0043,-1.999,-1.9987,-1.9997,-1.9971,-1.9966,-1.993,-1.9903,-1.9885,-1.9833,-1.9839,-1.9782,-1.979,-1.9758,-1.9751,-1.973,-1.9731,-1.9727,-1.9665,-1.9755,-1.9903,-1.9916,-1.9726,-1.9724,-1.9723,0,-2.0154,-2.0133,-2.0147,-2.0134,-2.0073,-2.0081,-2.0057,-2.0018,-2.0008,-1.9986,-1.9979,-1.9959,-1.9947,-1.9932,-1.9876,-1.9839,-1.989,-1.9828,-1.9868,-1.9869,-1.9881,-1.9881,-2.0029,-1.9878,-1.9878,-1.9877,-1.9877,0,-2.0262,-2.0282,-2.02,-2.0209,-2.023,-2.0164,-2.0186,-2.0153,-2.012,-2.0121,-2.0055,-2.0057,-1.9983,-1.9978,-1.9934,-1.9947,-1.9942,-1.992,-1.9908,-1.9926,-1.9929,-1.9919,-1.9912,-1.9881,-1.988,-1.9879,-1.9879,0,-2.0398,-2.0344,-2.0354,-2.0297,-2.0282,-2.03,-2.025,-2.0256,-2.0217,-2.0219,-2.0216,-2.0153,-2.0143,-2.0086,-2.0062,-2.0033,-2.0061,-2.0038,-2.0074,-2.0066,-2.0108,-2.0105,-2.0255,-2.0271,-2.0111,-2.0112,-2.0114,0,-2.047,-2.0484,-2.0428,-2.0424,-2.0403,-2.0397,-2.0387,-2.0323,-2.0315,-2.0276,-2.0286,-2.0271,-2.0255,-2.0242,-2.0195,-2.0176,-2.0151,-2.0205,-2.0148,-2.0166,-2.0152,-2.0151,-2.0152,-2.0218,-2.022,-2.0221,-2.0223,0,-2.0604,-2.0577,-2.0565,-2.0544,-2.0534,-2.0514,-2.049,-2.0491,-2.042,-2.0414,-2.0403,-2.0391,-2.0367,-2.0353,-2.0327,-2.03,-2.025,-2.0241,-2.0249,-2.0267,-2.0287,-2.0277,-2.0106,-2.0238,-2.0236,-2.0235,-2.0234,-2.0234,-2.071,-2.0719,-2.0681,-2.067,-2.0645,-2.0625,-2.0627,-2.0588,-2.0578,-2.0554,-2.0517,-2.0511,-2.0475,-2.0435,-2.0413,-2.0407,-2.0378,-2.039,-2.0393,-2.0396,-2.0405,-2.0289,-2.0402,-2.0402,-2.0401,-2.0401,-2.04,0,-2.084,-2.0812,-2.0803,-2.0772,-2.0763,-2.0717,-2.0688,-2.0684,-2.068,-2.0651,-2.0637,-2.0624,-2.061,-2.0562,-2.0543,-2.0547,-2.0524,-2.0544,-2.0543,-2.0538,-2.0433,-2.0428,-2.0564,-2.0564,-2.0564,-2.0564,-2.0564,-2.0564,-2.0906,-2.0919,-2.0888,-2.0888,-2.0859,-2.0853,-2.0841,-2.0822,-2.0798,-2.0787,-2.0775,-2.0744,-2.0707,-2.0685,-2.067,-2.0656,-2.0651,-2.068,-2.0659,-2.0561,-2.0545,-2.053,-2.0525,-2.068,-2.068,-2.0764,-2.0765,-2.0765]},{"header":{"parameterUnit":"m.s-1","parameterCategory":1,"la1":30.2991,"la2":30.254,"lo1":-89.0895,"lo2":-89.0444,"dy":0.0017,"dx":0.0017,"nx":28,"ny":28,"refTime":"2023-09-25T21:00:00:Z","depth":0,"parameterNumber":3,"parameterNumberName":"V-component_of_WINDS"},"data":[0,0,0,0,0,0,0,0,0,0,0,0,0,0,0,0,0,0,0,0,0,0,0,0,0,0,0,0,0,0,0,0,0,0,0,0,0,0,0,0,0,0,0,0,0,0,0,0,0,0,0,0,0,0,0,0,0,0,-0.8132,-0.8133,0,-0.8189,-0.819,-0.8191,-0.8277,-0.8279,-0.828,-0.8282,-0.8335,-0.8335,-0.8335,0,0,0,0,0,0,0,0,0,0,0,0,0,-0.8093,-0.8093,-0.8132,-0.8133,-0.8134,-0.8189,-0.819,-0.8191,-0.8277,-0.8279,-0.8281,-0.8282,-0.8335,-0.8335,-0.8335,0,0,0,0,0,0,0,0,0,0,0,0,0,-0.8126,-0.8093,-0.8132,-0.8184,-0.8189,-0.8189,-0.819,-0.8191,-0.8276,-0.8279,-0.8281,-0.8283,-0.8335,-0.8335,-0.8335,-0.8288,0,0,-0.8335,-0.8335,0,0,0,0,0,0,0,0,-0.8124,-0.8127,-0.8175,-0.818,-0.8186,-0.8229,-0.8196,-0.8224,-0.8276,-0.8243,-0.8282,-0.8284,-0.8297,-0.8301,-0.8306,-0.8291,-0.8293,-0.8335,-0.8335,-0.8335,-0.8335,0,0,0,0,0,0,0,-0.8121,-0.8125,-0.8155,-0.8176,-0.8182,-0.8202,-0.8209,-0.8202,-0.8256,-0.8246,-0.8252,-0.8258,-0.8301,-0.8306,-0.8308,-0.8294,-0.8335,-0.8335,-0.8335,-0.8335,-0.8243,-0.824,0,0,0,0,0,0,-0.8112,-0.8123,-0.8153,-0.8157,-0.816,-0.8201,-0.8209,-0.8212,-0.8257,-0.8266,-0.8256,-0.8262,-0.8305,-0.8308,-0.831,-0.8258,-0.8335,-0.8335,-0.8335,-0.8245,-0.8242,-0.8239,0,0,0,0,0,0,-0.8111,-0.8114,-0.8151,-0.8141,-0.8148,-0.8199,-0.8202,-0.8212,-0.8218,-0.8265,-0.8274,-0.8252,-0.8307,-0.831,-0.8293,-0.8261,-0.8335,-0.8335,-0.8248,-0.8244,-0.8241,-0.8154,0,0,0,0,0,0,-0.811,-0.8113,-0.8097,-0.8141,-0.8148,-0.8134,-0.82,-0.8212,-0.8218,-0.8226,-0.8263,-0.8271,-0.8309,-0.8293,-0.8293,-0.8263,-0.8335,-0.8251,-0.8246,-0.8242,-0.816,-0.8148,-0.8137,0,0,0,0,0,-0.8108,-0.807,-0.8096,-0.8099,-0.8129,-0.8132,-0.8136,-0.8182,-0.8215,-0.8199,-0.8229,-0.827,-0.8265,-0.8291,-0.8292,-0.826,-0.8253,-0.8248,-0.8242,-0.8165,-0.815,-0.8138,0,0,0,0,0,0,-0.8019,-0.8076,-0.8106,-0.8081,-0.8101,-0.8147,-0.8128,-0.8165,-0.8175,-0.8182,-0.8237,-0.8244,-0.822,-0.8239,-0.8266,-0.8217,-0.8265,-0.826,-0.8206,-0.8192,-0.8181,-0.8177,-0.8335,0,0,0,0,0,-0.7997,-0.7997,-0.8046,-0.8019,-0.8027,-0.8075,-0.8078,-0.8112,-0.8135,-0.8143,-0.8172,-0.8191,-0.8194,-0.8194,-0.8199,-0.8163,-0.8172,-0.8142,-0.8131,-0.8121,-0.8116,-0.8097,-0.8084,-0.8221,-0.8222,-0.8222,0,0,-0.7951,-0.7982,-0.7978,-0.8002,-0.8021,-0.8018,-0.8082,-0.8076,-0.8073,-0.8142,-0.8128,-0.8149,-0.8174,-0.8147,-0.8137,-0.8162,-0.808,-0.8114,-0.8106,-0.8106,-0.809,-0.8077,-0.8065,-0.8218,-0.8218,-0.8219,0,0,-0.7865,-0.7889,-0.7869,-0.7887,-0.7917,-0.7949,-0.7944,-0.7984,-0.8002,-0.7989,-0.804,-0.8037,-0.8041,-0.8056,-0.8064,-0.7984,-0.8021,-0.7983,-0.7924,-0.7906,-0.7895,-0.7886,-0.7856,-0.7845,-0.7978,-0.7978,-0.7977,0,-0.7803,-0.7802,-0.7853,-0.7844,-0.7852,-0.7916,-0.7895,-0.791,-0.7939,-0.7942,-0.797,-0.7976,-0.7997,-0.7975,-0.7955,-0.796,-0.7955,-0.7979,-0.7893,-0.7884,-0.7876,-0.7848,-0.7837,-0.7973,-0.7973,-0.7974,-0.7974,0,-0.7724,-0.7722,-0.7702,-0.773,-0.7736,-0.7721,-0.7768,-0.7768,-0.7801,-0.7829,-0.7815,-0.7842,-0.7854,-0.7851,-0.7882,-0.7832,-0.7847,-0.7883,-0.7932,-0.7857,-0.7832,-0.7822,-0.7966,-0.7968,-0.7969,-0.797,0,0,-0.7583,-0.7641,-0.7632,-0.7646,-0.7683,-0.7682,-0.7668,-0.7682,-0.768,-0.7697,-0.7687,-0.7688,-0.7722,-0.7731,-0.7765,-0.7748,-0.7681,-0.7786,-0.7788,-0.7765,-0.7627,-0.7599,-0.7586,-0.7707,-0.7705,-0.7704,-0.7625,0,-0.7504,-0.7488,-0.7533,-0.7504,-0.7502,-0.7562,-0.7551,-0.7571,-0.7597,-0.7598,-0.7626,-0.7627,-0.7671,-0.7677,-0.7664,-0.7692,-0.7654,-0.7699,-0.7696,-0.7696,-0.7688,-0.7573,-0.7544,-0.7468,-0.7615,-0.7614,-0.7612,0,-0.741,-0.7424,-0.7395,-0.7434,-0.7435,-0.7424,-0.7439,-0.744,-0.7464,-0.7484,-0.7494,-0.7533,-0.7522,-0.7569,-0.7553,-0.7582,-0.7584,-0.7598,-0.7596,-0.7597,-0.7649,-0.757,-0.7445,-0.7433,-0.7598,-0.7599,-0.76,0,-0.731,-0.7321,-0.7306,-0.7315,-0.736,-0.7351,-0.7369,-0.7395,-0.74,-0.7412,-0.7416,-0.7426,-0.7431,-0.7438,-0.7478,-0.7509,-0.7456,-0.7508,-0.7471,-0.747,-0.7457,-0.7457,-0.7329,-0.7459,-0.7459,-0.7459,-0.746,0,-0.7216,-0.7196,-0.7261,-0.7251,-0.723,-0.7282,-0.7258,-0.7282,-0.7305,-0.7299,-0.7351,-0.7345,-0.7399,-0.7398,-0.7429,-0.741,-0.7412,-0.7427,-0.7435,-0.7422,-0.742,-0.7423,-0.7429,-0.7456,-0.7457,-0.7458,-0.7458,0,-0.7101,-0.7144,-0.713,-0.7174,-0.7185,-0.7167,-0.7204,-0.7195,-0.7225,-0.7217,-0.7218,-0.7264,-0.7265,-0.7306,-0.7316,-0.7337,-0.7304,-0.7323,-0.7296,-0.7302,-0.7263,-0.7266,-0.7133,-0.7117,-0.7257,-0.7255,-0.7254,0,-0.7038,-0.7024,-0.7067,-0.7068,-0.7084,-0.7084,-0.709,-0.7139,-0.7143,-0.7169,-0.7156,-0.7162,-0.717,-0.7168,-0.7201,-0.7208,-0.7227,-0.7179,-0.7228,-0.7215,-0.7225,-0.7225,-0.7223,-0.7169,-0.7167,-0.7166,-0.7164,0,-0.6922,-0.6944,-0.6951,-0.6965,-0.697,-0.6983,-0.6999,-0.6996,-0.7051,-0.7051,-0.7054,-0.706,-0.707,-0.7074,-0.7087,-0.7104,-0.7142,-0.7149,-0.7141,-0.7127,-0.7112,-0.7118,-0.7268,-0.7152,-0.7153,-0.7154,-0.7155,-0.7155,-0.6831,-0.6821,-0.6849,-0.6855,-0.6872,-0.6886,-0.688,-0.691,-0.6913,-0.6927,-0.6956,-0.6953,-0.6976,-0.6998,-0.7012,-0.7009,-0.7033,-0.7021,-0.7018,-0.7014,-0.7006,-0.7113,-0.7012,-0.7012,-0.7013,-0.7013,-0.7013,0,-0.6717,-0.6738,-0.6743,-0.6764,-0.6768,-0.6806,-0.6825,-0.6825,-0.6824,-0.6843,-0.6849,-0.6851,-0.6856,-0.6889,-0.6897,-0.6889,-0.6906,-0.6889,-0.689,-0.6892,-0.6985,-0.6991,-0.6874,-0.6874,-0.6874,-0.6874,-0.6874,-0.6874,-0.6658,-0.6643,-0.6668,-0.6662,-0.6684,-0.6683,-0.6691,-0.6703,-0.6719,-0.672,-0.6724,-0.6747,-0.6771,-0.6781,-0.6786,-0.6796,-0.6795,-0.6772,-0.6787,-0.6873,-0.6886,-0.6899,-0.6905,-0.6772,-0.6771,-0.6694,-0.6694,-0.6693]}]]